This is the latest recevied weather packets stored in our database for station/object HB9FHL-13. If no packets are shown the sender has not sent any weather packets the latest 10 day(s).
| Time | Temp. | Humidity | Pressure | Rain* | Wind** | Luminosity | Snow |
|---|---|---|---|---|---|---|---|
| 1777623311 | 10.56° C | - | 1024.7 hPa | 0 mm | - | - | - |
| 1777623010 | 11.67° C | - | 1024.4 hPa | 0 mm | - | - | - |
| 1777622339 | 10.56° C | - | 1026.1 hPa | 0 mm | - | - | - |
| 1777622062 | 12.22° C | - | 1028.4 hPa | 0 mm | - | - | - |
| 1777621737 | 11.67° C | - | 1022.2 hPa | 0 mm | - | - | - |
| 1777621436 | 11.11° C | - | 1024.7 hPa | 0 mm | - | - | - |
| 1777621136 | 11.67° C | - | 1027.1 hPa | 0 mm | - | - | - |
| 1777620835 | 11.67° C | - | 1023.2 hPa | 0 mm | - | - | - |
| 1777620535 | 11.67° C | - | 1026.9 hPa | 0 mm | - | - | - |
| 1777620268 | 10.56° C | - | 1026.9 hPa | 0 mm | - | - | - |
| 1777620237 | 10.56° C | - | 1026.9 hPa | 0 mm | - | - | - |
| 1777619934 | 11.67° C | - | 1029.4 hPa | 0 mm | - | - | - |
| 1777619633 | 11.67° C | - | 1024.9 hPa | 0 mm | - | - | - |
| 1777619333 | 11.67° C | - | 1023.5 hPa | 0 mm | - | - | - |
| 1777619032 | 11.11° C | - | 1027.6 hPa | 0 mm | - | - | - |
| 1777618732 | 11.67° C | - | 1027.6 hPa | 0 mm | - | - | - |
| 1777618435 | 11.11° C | - | 1025.1 hPa | 0 mm | - | - | - |
| 1777618131 | 11.67° C | - | 1025.2 hPa | 0 mm | - | - | - |
| 1777617831 | 11.67° C | - | 1028.8 hPa | 0 mm | - | - | - |
| 1777617530 | 11.11° C | - | 1025.1 hPa | 0 mm | - | - | - |
| 1777617230 | 11.11° C | - | 1023.4 hPa | 0 mm | - | - | - |
| 1777616929 | 11.67° C | - | 1027.3 hPa | 0 mm | - | - | - |
| 1777616328 | 11.67° C | - | 1024.6 hPa | 0 mm | - | - | - |
| 1777616028 | 11.11° C | - | 1024.5 hPa | 0 mm | - | - | - |
| 1777615727 | 10.56° C | - | 1027.6 hPa | 0 mm | - | - | - |
* Rain since midnight (hover to see other rain measurements)
** Current wind speed in m/s (hover to see current wind gust speed)